CAPE
0 0 30 251 637 258 182 292 0 0 0 0 0 0 38 466 105 73 36 257 413 626 959 1398 1759 1771 2183 1967 1618 1922 2037 2256 2237 2183 2351 2234 2117 2111 2287 1773 1825 1921 1847 1832 1787 1797 1845 1678 1038
0 0 94 398 456 49 228 86 0 0 0 0 0 2 290 436 22 0 163 320 490 757 843 1183 1889 1553 1617 1958 1757 1857 1985 2176 2052 2211 2132 2170 1913 2078 2064 1698 1687 1901 1831 1632 1773 1765 1424 1675 1673
0 5 679 151 382 95 236 43 0 0 0 0 5 116 655 34 1 65 255 467 644 868 1144 1622 1491 1339 1144 1620 1933 1793 1931 1922 2100 2131 2211 1862 2061 2162 2232 2122 2099 1922 1913 1812 1808 1716 1860 1896 1842
6 350 492 70 179 293 274 13 0 0 0 143 306 500 62 0 149 218 452 659 964 1096 954 1075 1185 1186 1550 1264 1790 1880 2038 1737 1906 2146 2106 2085 2099 2177 2210 2173 2128 2032 1926 1856 1966 1891 1878 1870 2012
293 172 216 82 184 349 301 229 0 0 281 443 494 499 0 331 244 433 744 791 735 370 280 973 1700 1841 1844 1712 1676 1874 1897 2107 2208 2011 1885 2153 2040 2147 2137 1999 2104 2155 1960 1980 2009 1993 2236 2292 2400
132 163 79 136 150 400 474 75 0 10 591 521 377 25 282 432 457 683 541 389 119 203 929 1273 1713 1712 1648 1890 1769 1897 2001 2017 1890 2057 1951 1971 2234 2050 1951 2162 2242 1907 2022 2056 2004 2009 1937 1909 1499
102 43 22 135 278 489 484 34 20 150 332 377 183 30 416 347 619 596 547 139 63 373 948 1223 1513 1738 1691 1498 1949 1905 1966 1831 1933 1880 1985 2106 2087 1973 2010 2205 2157 1894 2075 2058 2010 2105 2126 1945 1769
106 387 32 197 374 291 412 368 377 359 386 169 57 77 355 428 549 645 361 59 624 695 754 988 941 1324 1178 1483 1830 1851 1892 1876 2132 1926 1973 1909 2093 2111 2020 2673 2420 1866 1985 2065 2007 1986 2210 2236 2312
63 547 447 318 294 513 432 317 264 217 187 94 113 11 295 501 533 424 34 138 358 649 831 674 950 1291 1380 1433 1744 1680 1834 2025 1956 1931 1829 1986 1458 1300 1664 2106 2036 2075 1933 1887 1704 1733 2046 2110 2277
360 577 370 388 147 505 306 313 182 216 237 140 39 110 244 431 446 12 20 155 411 594 595 629 791 869 1011 883 1501 1513 1390 1672 1633 1837 1251 969 1317 1712 1584 2040 2238 2202 1919 2020 1851 2100 1926 1435 1454
383 419 427 101 124 437 313 196 120 127 208 260 226 210 247 246 38 0 6 170 350 486 496 509 701 615 607 866 859 859 1253 1484 1853 1549 1084 1255 1338 1365 1110 1497 1669 1462 1608 1472 1515 1597 1512 1927 1762
317 435 132 82 220 329 281 112 26 4 47 125 117 95 59 24 0 0 29 200 303 427 354 283 395 645 614 674 388 495 1089 1112 1090 1279 1694 1751 1460 1461 1402 1468 1634 1576 1453 1780 1800 1700 2014 1745 1709
248 445 41 62 204 256 172 75 62 42 18 28 2 0 0 0 0 0 1 166 312 247 191 193 457 935 1144 819 360 522 802 1080 991 1111 1555 1473 1461 1789 1630 1804 1813 1767 1564 1550 1743 1924 1757 1387 1295
190 299 81 62 215 293 223 100 22 16 14 0 0 0 0 0 0 0 0 118 472 163 134 213 490 963 1064 1009 978 934 920 1091 859 1014 1466 1568 1462 1828 1632 1748 1670 1757 1643 1726 1880 2234 1398 1158 1075
255 472 321 183 487 81 139 130 138 0 0 0 2 2 0 0 0 0 21 80 282 139 141 404 632 991 1057 1153 1108 821 917 842 778 1017 1560 1680 1649 2082 1885 1787 1622 1898 2301 2387 2175 1758 1501 1071 1055
403 507 451 248 392 105 52 219 212 25 5 43 54 23 68 79 55 73 70 82 194 51 229 436 311 635 736 887 1126 920 804 787 855 1157 1462 1708 1964 2028 1809 1505 1549 1966 1905 1793 1561 1392 1114 1310 1226
534 523 243 382 222 74 0 126 79 162 41 93 175 155 163 232 184 232 184 212 213 244 356 377 412 369 799 1361 1069 1077 1390 1170 1172 1161 1400 1947 1793 1706 1616 1626 2066 2118 1710 1687 1327 1352 1360 1239 1210
298 189 233 259 131 6 3 35 67 209 121 121 209 220 174 216 319 454 347 325 284 432 466 527 498 843 1076 1250 1194 1046 1167 1342 1267 1259 1415 1750 1554 1741 1592 1760 2068 1928 1668 1647 1816 2479 1742 1139 1128
17 123 195 200 31 0 1 46 97 145 248 208 215 223 295 269 276 460 536 419 440 511 677 773 838 1308 1206 1016 834 982 859 1186 1265 1340 1732 1970 1820 1682 1748 1676 1969 1809 1808 2376 2120 1635 1699 1057 1391
177 293 436 221 173 187 94 98 124 95 124 161 172 224 215 221 286 388 564 562 445 603 719 1055 1097 1610 1513 1283 1248 988 832 886 990 1151 1660 1690 1807 1540 1711 2015 1667 1956 1863 2434 2658 2524 1315 1362 2133
0 106 321 344 205 147 3 3 148 102 107 122 137 191 227 269 214 362 529 635 642 559 764 1023 1295 1418 1677 1432 1759 1764 1625 1419 1454 1431 1214 1606 1709 1571 1602 1914 1863 2132 1777 1667 2129 2086 2669 1305 1997
4 19 141 399 230 103 117 50 11 225 264 56 12 141 266 298 359 287 421 671 715 740 694 880 1274 1303 1715 1983 1409 1540 1282 1544 1200 1481 1206 1194 1135 1378 1396 1875 1931 2174 1630 1994 1945 2024 2389 2662 1535
0 0 3 86 78 106 204 88 86 122 431 411 58 132 169 223 257 388 434 534 692 805 879 891 1375 1372 1115 1909 1522 1992 1027 916 1127 1287 1513 1218 1318 1462 1583 1644 2262 2289 1799 1933 1987 2167 2144 2010 1721
0 73 31 0 0 69 61 91 254 180 222 429 262 298 174 178 246 301 432 527 619 829 854 839 1488 1853 1508 1657 1688 1427 1104 1183 1145 1266 1231 969 1338 1065 1096 1223 1558 2072 1960 2205 1634 1836 1719 2750 2219
0 7 26 44 46 93 81 81 134 360 325 530 506 252 197 173 348 253 493 719 725 849 927 828 1302 1694 1673 1498 1379 1472 1082 1033 1270 1270 811 1408 1303 1147 1253 1463 1517 1523 1802 2018 1669 2390 1779 2027 2205
0 0 3 68 72 63 132 113 248 275 308 268 504 474 333 230 388 336 455 766 880 860 1010 831 1113 1465 1476 1318 1479 1620 1175 661 545 791 1371 884 1445 1128 1790 1366 1510 1641 1470 1939 2140 1971 1608 1686 1466
0 11 0 1 56 59 160 83 262 244 415 367 287 239 468 280 292 353 513 800 825 878 1076 999 1020 1321 1323 1109 1383 1278 929 934 1043 1013 1248 1239 1165 1682 1772 1786 1545 1707 1641 1933 2027 1508 2010 2211 2226
0 0 13 40 61 63 157 119 176 548 564 556 316 456 494 313 158 293 479 740 614 746 1023 889 1102 1303 1092 961 1065 1019 966 952 644 903 761 1164 1784 1843 2003 2047 1893 1519 1548 1465 1792 1484 1661 2143 1652
0 0 0 4 12 21 79 72 503 563 767 803 574 625 665 535 471 313 401 742 917 985 829 508 1101 1240 1130 935 815 871 928 742 1048 947 793 1097 956 1592 1799 2228 2115 1847 1679 1782 2204 2024 1577 1884 1538
2 0 0 0 0 2 44 194 638 857 978 996 1030 727 640 475 623 688 448 480 834 858 587 545 812 776 1063 927 1074 925 520 819 673 1037 853 1190 1079 1472 1404 1674 2286 1790 1291 1585 2038 1725 1211 1652 1328
CIN
0 0 -83 -20 0 0 -4 0 0 0 0 0 0 0 -7 -1 -4 -12 -72 -26 -6 0 0 0 -1 0 0 -1 0 0 0 0 0 0 0 0 0 0 0 0 0 0 0 0 0 0 0 0 -3
0 0 -53 -9 -1 0 -2 -1 0 0 0 0 0 -3 0 -4 -61 0 -34 -3 0 0 0 0 -2 -2 0 0 -1 0 0 0 0 0 0 0 -1 0 0 0 0 0 0 -2 0 0 0 0 0
0 -9 0 -40 -1 0 -1 0 0 0 0 0 -22 -2 0 -18 -8 -44 -11 0 0 0 0 0 0 -3 -7 0 -1 -2 0 -2 0 0 -1 -1 -1 0 0 0 0 0 0 0 -1 -1 0 0 0
-17 -3 -2 -65 -7 -1 0 -4 0 0 0 -2 -1 -1 -50 0 -16 -8 -1 0 0 0 0 -8 -7 -8 0 -12 0 0 0 0 0 0 0 0 -1 0 0 0 0 0 0 0 0 0 0 0 0
0 -12 -7 -11 -4 -4 0 -1 0 0 -1 0 0 -2 0 -2 -9 -1 0 0 0 0 -6 0 0 0 0 0 0 0 0 0 0 -2 0 0 0 -1 0 -2 0 0 0 0 0 0 0 0 0
-21 -25 -1 -6 0 -1 0 -13 0 -8 0 -1 -6 -53 -10 0 0 0 0 0 -2 0 0 0 0 0 -1 0 0 0 0 0 -6 -3 -4 -2 -1 0 0 0 0 0 0 0 -1 -1 0 -1 -5
-23 -13 -11 -1 0 0 0 -17 -15 -4 -3 0 -23 -31 -3 0 0 0 0 -5 -12 0 0 0 0 -1 -1 -1 0 -1 0 -1 -4 -2 -3 -3 0 0 0 0 0 0 0 -2 -6 -5 -7 -7 -9
-34 -1 -14 -2 0 0 0 -2 0 0 0 -16 -9 -81 -30 -1 0 0 0 -24 0 0 0 0 0 0 0 0 0 0 0 0 0 0 0 -1 0 -1 -3 -2 0 -4 -8 -9 -11 -10 -6 -7 -2
-27 0 0 0 0 -1 0 -9 -1 -3 -11 -22 -21 -24 -35 -10 0 0 -22 -9 -1 0 0 -1 0 0 0 0 -1 -1 0 -1 -9 -3 -8 -7 0 0 0 -5 -3 -9 -14 -24 -31 -27 -17 -13 -19
-1 0 -1 -2 -27 -1 -1 -14 -16 0 0 -13 -26 -28 -33 -13 -1 -10 -13 -4 0 0 0 0 0 0 0 0 0 0 0 0 0 0 0 0 0 -1 0 -2 -14 -21 -29 -31 -37 -31 -33 -50 0
0 0 -1 -57 -43 0 -1 -11 -15 -1 -1 -8 -28 -39 -19 -18 -26 0 -1 0 0 0 0 0 0 0 0 0 0 0 0 0 0 0 0 0 0 0 0 -1 0 -1 -26 -1 -9 -10 0 0 0
0 -1 -16 -36 -15 0 -4 -20 -10 0 -8 -7 -36 -59 -48 -44 0 0 -2 0 0 0 0 -1 0 0 0 0 0 0 0 0 0 0 0 0 0 0 0 0 0 -1 0 -3 0 0 -2 -2 -1
-1 0 -35 -32 -12 -21 -2 -10 -18 -11 -12 -19 0 0 0 0 0 0 0 0 0 -2 -7 -10 0 0 0 0 0 0 0 0 0 0 0 0 0 0 0 0 0 0 0 0 0 0 0 -1 0
-2 -1 -4 -35 -77 -20 0 0 -1 -7 -12 0 0 0 0 0 0 0 0 -1 0 -2 -3 -4 0 0 0 0 0 0 0 0 0 0 0 0 0 0 0 0 0 0 0 0 0 0 0 0 0
-13 0 -2 -1 0 -50 -9 -1 -4 0 0 0 -1 0 0 0 0 0 -5 -2 0 -5 -6 0 0 0 0 0 0 0 0 0 0 0 -2 0 0 -1 0 0 0 0 -1 -3 0 0 0 0 0
-7 0 0 -3 -1 -7 -69 -1 0 0 0 0 0 0 -1 0 -1 -2 -3 0 0 -6 -5 0 0 0 0 0 0 0 0 0 0 0 0 0 0 0 0 0 0 -1 0 0 0 0 0 0 0
-2 0 -3 0 -1 -29 0 -1 -14 -1 0 0 0 0 0 -11 -21 -5 -19 -1 0 -1 -1 0 0 0 0 0 0 0 -1 0 0 0 0 -1 -1 -4 0 0 0 0 0 0 0 0 -1 0 0
0 -2 -12 -4 0 -49 0 -37 -23 -1 0 0 0 0 0 0 0 0 0 0 0 0 0 0 0 0 0 0 0 0 0 0 0 0 0 -1 -1 0 -1 -1 0 0 0 0 0 -3 0 0 0
0 -17 -8 -6 -14 -1 -24 -15 -24 -12 -3 -1 0 0 0 0 0 -1 -3 0 0 0 0 0 0 0 0 0 0 0 0 0 0 0 0 0 0 0 0 0 0 0 0 -2 -2 -1 -2 0 -1
0 -2 0 -20 0 0 -1 0 -9 -14 -18 -5 0 0 0 0 0 0 -1 0 0 -1 -1 0 0 0 0 0 -1 0 0 0 0 0 0 0 0 -1 0 0 0 -1 0 0 -1 -4 0 0 -2
0 0 -5 -5 -1 -6 -38 -14 0 -1 -18 -37 -43 -3 -1 0 0 0 0 0 0 0 0 0 0 0 0 0 0 0 0 0 0 0 0 0 0 0 0 0 0 -1 -1 0 -1 -2 -5 0 -2
-1 -1 -2 -14 -17 0 -20 -2 -61 -2 -1 -20 -68 -6 0 0 0 0 -1 0 0 0 0 0 0 0 0 0 0 0 -1 0 0 0 0 0 -1 0 0 0 0 0 0 -2 -1 -1 -1 -4 0
0 -1 -34 -2 -2 -2 -9 -2 -11 -62 0 0 -1 -1 -3 0 -1 -3 0 0 0 0 0 0 0 0 0 0 -1 0 0 0 0 0 -1 0 0 0 0 0 0 -1 0 -4 -3 0 -3 -1 0
0 -16 -6 -6 0 0 -1 -5 -34 -79 -62 -3 -15 -13 -31 -1 0 -1 -1 0 -1 0 0 0 0 0 0 0 0 0 -1 0 0 0 0 -4 0 -2 0 0 -1 0 0 0 -2 -4 -6 -1 -3
0 -18 -4 0 -2 -1 -4 -4 -2 -25 -29 -8 -30 -54 -18 -29 0 -1 0 0 0 0 0 0 -1 0 0 0 0 0 0 0 -1 -1 -2 0 0 0 -7 0 0 0 0 0 -1 0 0 0 0
0 0 -5 0 -10 -11 -9 0 0 -22 -33 -16 -5 -28 -39 -19 0 0 0 0 0 0 0 -4 -6 0 0 -1 0 0 0 0 -1 -4 0 -2 0 0 0 0 0 0 0 0 -1 0 0 0 -1
0 0 -1 -24 0 0 0 -1 -23 -63 -54 -52 -28 -23 -19 -54 -5 -6 0 -2 -6 -2 -2 -9 -6 -2 -1 0 0 0 0 0 -1 -1 -1 0 -8 -1 0 0 0 0 0 0 0 0 0 0 0
0 0 0 0 0 0 0 0 0 -27 -28 -40 -54 -40 -56 -70 -23 -5 -6 -11 -77 -7 -3 -8 -1 -1 -2 -3 0 0 0 0 -4 0 -5 -1 -1 -2 -1 0 0 0 0 -2 -1 0 0 0 0
0 0 0 0 0 0 0 0 -18 -23 -29 -30 -34 -29 -42 -92 -65 -78 -61 -23 -15 -2 -34 -86 0 0 0 -2 0 0 0 0 0 0 0 0 -4 -3 -1 -4 -1 -2 0 0 0 0 0 0 0
-1 0 0 0 0 0 0 -1 -91 -92 -95 -62 -28 -22 -50 -90 -76 -76 -113 -133 -59 -36 -71 -74 -59 -17 0 0 -2 -5 0 0 0 0 0 0 -2 -1 -2 0 -2 -1 -2 0 0 0 0 0 0
Wind_Speed
10 7 2 5 6 4 9 8 13 14 14 9 9 4 11 12 9 11 17 9 13 12 12 10 8 8 8 8 8 10 11 11 12 11 11 12 12 13 13 14 15 14 15 16 16 16 16 15 16
6 3 4 4 5 10 10 9 16 12 14 17 9 8 4 14 10 17 13 14 13 13 12 13 8 9 8 8 8 10 10 10 10 10 10 11 11 11 14 14 14 14 14 14 15 15 14 14 14
4 3 5 3 3 9 11 11 13 14 16 11 6 6 6 9 16 11 17 16 13 11 13 13 9 9 8 8 10 8 10 8 9 9 9 11 11 12 15 14 14 13 13 13 12 12 12 12 15
4 3 3 1 9 8 14 15 16 16 15 5 11 11 9 16 8 13 17 15 13 12 13 12 9 8 7 9 9 9 9 8 8 8 9 11 12 13 13 14 13 14 13 12 13 10 9 9 10
1 2 2 2 7 8 11 12 17 20 11 9 3 10 15 8 14 18 16 13 13 12 13 14 8 9 9 8 9 9 8 8 8 8 10 12 12 12 13 13 12 14 13 12 14 14 12 12 12
2 1 2 5 9 8 9 12 17 15 12 11 14 20 13 9 17 16 14 12 11 11 14 13 10 10 10 9 10 9 8 7 10 9 11 14 14 12 13 13 12 12 12 13 13 11 10 10 10
1 2 3 4 13 11 11 14 14 12 13 9 14 16 11 16 15 14 13 12 11 11 12 12 14 11 11 10 11 10 10 8 10 11 12 13 14 14 12 12 12 11 11 11 11 10 8 9 9
3 1 6 9 13 12 11 10 9 11 9 11 11 9 15 15 15 13 13 12 10 10 11 9 10 9 10 12 12 12 12 10 11 12 13 14 15 13 13 12 10 10 9 8 8 8 8 8 8
4 4 7 10 16 12 13 14 5 5 14 7 4 14 22 19 16 15 13 13 11 9 9 9 12 8 8 10 11 12 12 13 13 13 11 10 9 11 11 13 9 8 7 6 5 6 6 6 8
6 4 4 6 4 15 14 12 12 12 13 14 17 22 22 20 18 16 14 13 12 11 9 8 10 10 8 8 7 8 8 7 8 8 8 6 8 10 11 11 10 8 5 5 3 3 3 9 3
3 3 7 6 1 10 13 11 8 12 12 16 22 24 22 21 17 15 13 12 12 11 8 9 9 6 7 7 6 5 5 7 6 8 7 8 8 7 6 6 7 6 5 3 4 4 1 5 3
4 7 1 10 3 9 12 11 10 3 9 14 22 24 21 19 16 15 14 10 11 10 10 11 10 6 7 7 5 6 5 6 6 8 8 6 6 6 4 4 5 2 4 3 3 5 4 5 2
6 8 10 7 5 9 10 12 9 9 11 19 22 21 20 17 15 13 12 11 11 11 11 11 10 8 8 4 6 7 7 6 8 8 6 5 6 5 5 3 3 3 3 4 3 3 5 4 6
3 9 16 7 4 4 10 13 8 12 17 21 20 20 18 16 16 13 12 12 11 11 11 11 11 9 8 8 7 6 5 7 6 6 7 4 4 3 4 3 4 3 3 3 3 4 3 4 7
8 11 10 9 11 2 4 10 9 17 19 20 19 17 16 16 15 13 12 12 12 11 12 12 11 11 9 9 8 5 7 6 6 7 6 5 3 4 1 4 3 4 3 1 3 2 2 5 6
5 11 11 9 10 4 6 15 8 16 19 19 17 16 15 15 15 13 12 11 12 13 13 12 10 12 10 8 6 5 5 6 6 5 5 4 5 3 2 3 3 3 3 2 3 2 4 3 3
10 7 8 9 10 5 3 5 3 10 17 18 17 16 15 14 13 12 12 12 12 13 13 12 11 11 10 8 6 6 6 5 5 5 4 5 5 4 1 2 4 3 3 3 2 3 3 3 2
8 7 12 13 8 11 6 6 5 9 16 17 17 17 16 16 15 13 13 13 13 13 12 11 10 10 8 7 4 5 6 5 5 5 5 5 5 4 2 4 3 3 3 3 4 4 3 2 3
3 7 12 9 13 7 8 8 13 12 13 13 17 17 16 16 15 15 12 13 14 13 13 12 11 10 8 7 6 6 6 5 5 5 5 5 5 4 3 2 3 2 3 4 1 0 2 4 3
6 14 16 14 11 5 6 10 15 18 12 15 16 17 17 17 16 15 15 14 14 14 14 13 11 11 9 6 4 3 4 5 5 4 4 4 4 4 4 1 2 1 5 3 3 4 2 3 5
5 3 14 15 10 10 12 3 10 19 11 9 11 14 18 16 17 16 15 15 14 15 15 13 12 11 9 7 6 5 4 3 6 6 5 5 5 5 3 3 1 3 3 4 1 3 4 4 4
4 2 8 19 12 7 14 4 7 17 20 18 16 18 19 18 16 18 17 16 16 15 15 14 13 10 8 9 8 6 8 7 5 6 5 5 5 5 6 4 4 2 1 2 2 3 3 6 4
2 6 7 9 2 8 16 7 9 16 19 23 25 23 19 18 20 18 19 18 17 15 14 14 13 11 9 9 6 7 8 6 6 4 6 3 4 6 6 5 5 4 5 3 1 1 4 2 4
8 9 4 3 3 8 9 12 12 19 25 24 22 19 22 18 19 19 18 16 15 14 13 13 13 12 11 9 9 8 6 4 5 5 5 5 6 4 4 5 4 3 3 4 4 2 2 5 3
11 8 3 4 8 7 4 8 3 18 15 23 29 25 26 22 19 18 17 15 14 16 15 14 14 13 13 11 9 9 8 6 6 6 6 1 6 7 8 7 6 5 5 4 3 4 2 3 2
14 14 6 8 4 7 4 7 5 10 10 15 21 24 23 22 20 17 18 16 17 16 16 15 15 14 13 12 10 7 7 6 7 6 2 6 3 5 7 7 6 5 5 5 4 6 6 3 3
15 16 13 10 7 7 8 6 10 9 10 13 16 22 23 22 18 18 16 15 15 16 17 15 14 13 12 13 10 10 9 9 6 3 4 6 4 3 6 6 6 6 6 5 4 5 5 4 4
14 11 17 12 13 12 8 8 1 10 10 13 18 23 21 16 18 15 16 16 15 16 13 12 13 12 11 11 10 9 9 9 8 5 6 4 1 5 6 6 6 6 6 6 6 4 6 5 5
12 13 10 14 14 12 12 8 7 5 7 11 15 19 18 21 21 15 10 14 14 14 12 4 9 10 10 10 10 10 8 8 7 7 8 4 4 5 5 6 6 5 6 7 7 5 3 6 5
9 17 16 11 15 10 14 2 5 5 4 5 10 14 16 16 17 15 12 9 8 13 9 7 6 4 6 8 9 10 11 8 8 8 8 5 6 4 4 4 6 5 5 5 7 6 5 6 6
Wind_Direction
185 202 232 239 222 219 105 90 118 124 133 130 117 128 69 20 4 85 128 142 131 136 124 149 143 123 100 104 103 93 92 83 83 82 82 86 87 96 100 102 105 98 95 95 93 92 92 89 82
168 172 231 282 220 137 103 121 132 142 126 134 129 136 94 71 92 118 130 140 145 138 144 130 122 118 110 98 92 91 90 86 88 86 90 97 105 103 105 100 95 100 95 90 92 91 93 94 88
205 277 280 327 312 102 116 125 133 124 135 147 100 56 31 93 123 128 125 141 144 132 111 109 121 115 114 107 91 88 89 87 91 100 99 99 106 101 101 100 95 90 85 84 87 88 89 88 87
222 248 156 25 117 87 118 134 134 136 148 124 125 88 87 116 112 126 140 147 134 138 104 120 115 116 114 105 100 92 100 97 104 105 105 104 106 103 106 103 99 92 82 78 75 91 90 81 83
238 316 73 167 114 118 109 137 145 144 147 145 173 112 113 83 123 132 143 143 133 121 122 123 116 117 115 112 115 109 109 106 102 104 111 103 98 103 112 106 103 90 85 81 79 75 78 80 86
59 178 113 181 127 128 115 152 152 152 112 110 117 125 97 144 141 140 142 132 131 132 116 122 114 103 109 121 116 109 110 103 122 109 114 108 101 102 108 108 102 92 84 90 76 71 79 80 81
126 137 205 215 141 145 132 144 159 145 152 140 137 123 114 155 136 141 140 127 138 134 114 132 127 116 104 101 107 109 104 98 86 100 103 105 99 101 107 105 106 97 92 87 75 67 77 93 94
343 259 183 202 159 139 143 151 126 159 107 118 141 152 152 135 156 139 136 143 135 128 125 116 123 117 131 121 105 106 102 100 94 98 104 110 107 111 116 119 101 100 93 80 73 62 68 108 91
137 256 177 170 164 139 146 134 113 92 147 146 138 139 136 157 144 153 150 140 146 128 140 134 119 130 115 123 113 116 111 109 119 113 113 149 135 115 117 76 105 99 93 81 68 68 68 133 130
218 248 166 71 137 147 155 149 144 146 133 122 114 112 140 146 162 155 157 151 150 142 146 113 126 144 135 119 120 113 149 98 95 100 113 105 80 62 87 98 102 96 101 107 108 110 184 244 74
230 286 139 105 152 153 143 141 154 152 157 151 142 143 150 158 160 158 156 162 143 140 135 135 117 141 149 117 148 144 135 134 118 114 109 107 127 131 113 138 145 133 203 143 167 167 84 40 341
274 110 150 147 153 155 150 128 136 177 129 152 149 147 153 163 162 162 159 160 140 142 139 127 136 137 124 145 136 128 134 132 135 111 128 138 122 117 104 83 112 152 74 83 34 60 32 28 90
244 114 133 110 100 141 144 134 121 103 135 138 143 151 156 164 162 160 154 148 147 155 143 133 139 137 129 150 123 116 136 147 117 144 119 104 110 103 113 102 81 51 107 86 61 55 54 87 90
357 136 138 125 145 65 165 137 137 118 140 141 153 156 160 164 161 155 159 158 159 147 145 136 147 142 146 113 123 133 130 120 135 128 110 107 101 81 120 125 110 107 64 69 51 30 57 76 105
248 149 142 168 142 83 88 141 123 140 148 147 160 160 161 162 153 160 159 160 160 156 146 149 149 144 145 138 151 134 160 133 137 112 131 112 139 98 154 99 135 100 102 135 145 151 136 98 115
202 152 156 165 154 105 12 143 133 158 159 159 160 158 161 159 158 157 152 156 152 149 152 160 155 147 154 130 158 131 115 137 123 133 144 143 122 110 145 148 112 96 144 138 91 63 112 72 60
188 180 180 142 83 84 124 155 165 178 177 169 168 166 166 162 164 158 153 155 152 147 155 161 155 154 154 145 144 142 129 150 135 143 147 124 142 127 205 115 97 198 133 82 70 97 345 112 52
179 166 166 143 119 108 143 132 193 208 195 180 177 172 176 173 176 168 164 158 156 153 158 163 166 148 164 151 162 141 140 141 150 143 112 149 133 138 189 109 84 213 135 105 56 357 39 349 25
317 121 114 111 132 108 130 159 207 206 216 214 183 177 180 184 175 167 178 169 162 164 164 167 165 159 173 172 172 152 153 140 151 144 145 148 136 133 162 115 154 172 116 40 26 91 101 66 36
203 136 123 139 161 133 153 210 201 203 207 216 197 186 182 183 174 179 184 180 177 173 176 175 174 175 187 166 222 180 161 170 149 149 158 182 162 156 168 208 146 333 126 109 46 3 318 78 42
214 315 163 134 133 99 133 9 184 212 189 210 244 216 185 187 176 194 190 190 187 178 183 182 188 179 197 217 190 187 172 166 179 157 184 171 183 174 191 177 24 157 278 121 42 48 349 82 76
153 16 83 138 154 177 204 145 220 205 188 196 214 222 213 196 218 186 192 194 197 183 184 183 189 194 199 197 203 189 207 173 175 186 163 171 187 215 183 190 195 209 193 85 135 83 353 311 77
123 252 142 157 148 164 196 240 160 195 197 192 208 207 222 186 207 204 192 194 197 185 184 183 185 184 194 190 208 206 215 170 188 177 152 180 178 205 207 193 201 205 223 147 224 180 8 88 18
112 112 97 110 316 222 170 238 158 186 208 196 193 218 210 221 197 205 201 195 197 187 185 181 180 180 187 199 205 220 190 225 179 179 185 207 182 186 190 191 197 215 241 208 213 173 197 360 29
182 127 148 284 191 238 111 226 71 184 186 195 196 202 203 207 211 203 206 193 200 191 187 183 179 183 189 194 205 207 213 231 229 209 227 175 165 185 184 195 206 211 199 194 219 195 219 211 333
206 170 230 249 198 192 156 232 115 174 184 199 196 196 200 202 213 204 195 193 194 196 190 188 181 188 192 199 208 205 224 215 225 237 258 201 234 211 135 187 193 188 193 205 188 211 232 179 245
181 220 204 274 266 279 173 190 172 174 193 199 207 193 189 190 213 209 192 186 197 194 196 191 183 189 192 201 203 208 212 233 286 320 232 187 212 227 168 194 192 192 191 204 198 235 219 230 228
280 224 208 227 250 228 187 241 290 169 177 182 177 177 182 184 203 202 205 183 192 200 184 213 186 188 192 203 203 207 219 220 222 250 257 281 240 219 174 200 202 202 198 207 215 208 202 229 246
197 237 226 247 227 253 243 198 49 132 167 177 179 176 178 177 187 179 207 192 185 183 166 150 187 185 198 201 208 219 209 223 233 222 231 223 259 212 202 213 212 199 211 219 209 246 246 223 240
291 219 210 227 218 254 287 96 115 113 147 192 179 180 173 181 188 167 164 144 152 160 134 143 139 206 204 224 216 207 225 229 228 221 237 225 240 230 235 215 210 230 206 208 218 225 213 223 233